Date String (YYYY-MM-DD hh:mm:ss) UTC,Instrument flags,Ambient pressure (hPa),Sample flow (lpm),Bypass flow (lpm),Sample temperature (°C),Ambient temperature (°C),ASC tube jacket temperature (°C),LED temperature (°C),Box temperature (°C),Sample RH (%),Span deviation,Mass concentration (μg/m³),Mass concentration (μg/m³),Mass concentration (μg/m³)
DateTimeUTC,F1_M11,P_M11,Q1_M11,Q2_M11,T1_M11,T2_M11,T3_M11,T4_M11,T5_M11,U1_M11,ZSPAN_M11,X0_M11,X2_M11,X1_M11
2022-03-01 03:00:00,,0828.3,5.00,0.00,27.9,27.1,00.0,37.0,29.6,05.9,0000.0,0001.45,0000.73,0000.44
2022-03-01 03:01:00,,0828.3,5.01,0.00,27.9,27.1,00.0,37.0,29.6,05.9,0000.0,0001.45,0000.73,0000.45
2022-03-01 03:02:00,,0828.4,5.00,0.00,27.9,27.1,00.0,37.0,29.6,05.9,0000.0,0001.41,0000.73,0000.46
2022-03-01 03:03:00,,0828.5,5.00,0.00,27.9,27.1,00.0,37.0,29.6,05.9,0000.0,0001.35,0000.72,0000.45
2022-03-01 03:04:00,,0828.4,5.00,0.00,27.9,27.1,00.0,37.0,29.7,05.9,0000.0,0001.42,0000.75,0000.46
2022-03-01 03:05:00,,0828.5,5.00,0.00,27.9,27.2,00.0,37.0,29.7,06.0,0000.0,0001.54,0000.80,0000.48
2022-03-01 03:06:00,,0828.5,5.00,0.00,27.9,27.2,00.0,37.0,29.7,06.0,0000.0,0001.60,0000.79,0000.47
2022-03-01 03:07:00,,0828.4,5.00,0.00,27.9,27.2,00.0,37.0,29.7,06.0,0000.0,0001.55,0000.78,0000.47
2022-03-01 03:08:00,,0828.4,5.01,0.00,27.9,27.2,00.0,37.0,29.7,06.1,0000.0,0001.40,0000.74,0000.48
2022-03-01 03:09:00,,0828.4,5.01,0.00,27.9,27.2,00.0,37.0,29.7,06.2,0000.0,0001.35,0000.72,0000.48
2022-03-01 03:10:00,,0828.6,5.00,0.00,27.9,27.2,00.0,37.0,29.7,06.1,0000.0,0001.24,0000.70,0000.48
2022-03-01 03:11:00,,0828.8,5.00,0.00,27.9,27.2,00.0,37.0,29.7,06.3,0000.0,0001.28,0000.71,0000.48
2022-03-01 03:12:00,,0828.5,5.00,0.00,27.9,27.2,00.0,37.0,29.6,06.1,0000.0,0001.39,0000.73,0000.47
2022-03-01 03:13:00,,0828.6,4.99,0.00,27.9,27.2,00.0,37.0,29.6,06.3,0000.0,0001.32,0000.70,0000.46
2022-03-01 03:14:00,,0829.0,5.00,0.00,27.9,27.2,00.0,37.0,29.6,06.4,0000.0,0001.34,0000.69,0000.46
2022-03-01 03:15:00,,0828.9,4.99,0.00,27.9,27.2,00.0,37.0,29.7,06.2,0000.0,0001.39,0000.69,0000.45
2022-03-01 03:16:00,,0828.9,5.00,0.00,27.9,27.1,00.0,37.0,29.6,06.1,0000.0,0001.37,0000.67,0000.45
2022-03-01 03:17:00,,0828.6,5.01,0.00,27.9,27.1,00.0,37.0,29.6,06.1,0000.0,0001.21,0000.64,0000.45
2022-03-01 03:18:00,,0828.6,4.99,0.00,27.9,27.1,00.0,36.9,29.6,06.2,0000.0,0001.20,0000.64,0000.45
2022-03-01 03:19:00,,0828.8,5.00,0.00,27.9,27.1,00.0,36.9,29.6,06.3,0000.0,0001.36,0000.67,0000.46
2022-03-01 03:20:00,,0828.7,5.01,0.00,27.8,27.1,00.0,36.9,29.6,06.2,0000.0,0001.40,0000.68,0000.45
2022-03-01 03:21:00,,0828.7,5.00,0.00,27.8,27.1,00.0,36.9,29.6,06.1,0000.0,0001.43,0000.69,0000.45
2022-03-01 03:22:00,,0828.7,5.00,0.00,27.9,27.1,00.0,36.9,29.6,06.1,0000.0,0001.42,0000.70,0000.45
2022-03-01 03:23:00,,0828.7,5.00,0.00,27.8,27.1,00.0,36.9,29.6,06.3,0000.0,0001.33,0000.68,0000.46
2022-03-01 03:24:00,,0828.7,4.99,0.00,27.8,27.1,00.0,36.9,29.5,06.5,0000.0,0001.35,0000.69,0000.45
2022-03-01 03:25:00,,0828.7,5.01,0.00,27.8,27.1,00.0,36.9,29.6,06.7,0000.0,0001.39,0000.71,0000.45
2022-03-01 03:26:00,,0828.7,4.99,0.00,27.8,27.1,00.0,36.9,29.6,06.5,0000.0,0001.36,0000.71,0000.46
2022-03-01 03:27:00,,0828.7,5.01,0.00,27.8,27.1,00.0,36.9,29.6,06.2,0000.0,0001.25,0000.70,0000.46
2022-03-01 03:28:00,,0829.1,5.00,0.00,27.8,27.1,00.0,36.9,29.6,06.3,0000.0,0001.23,0000.69,0000.45
2022-03-01 03:29:00,,0828.8,5.01,0.00,27.8,27.1,00.0,36.9,29.5,06.3,0000.0,0001.23,0000.69,0000.45
2022-03-01 03:30:00,,0828.8,5.00,0.00,27.8,27.1,00.0,36.9,29.6,06.3,0000.0,0001.05,0000.65,0000.44
2022-03-01 03:31:00,,0828.7,5.00,0.00,27.8,27.1,00.0,36.9,29.6,06.4,0000.0,0001.08,0000.66,0000.44
2022-03-01 03:32:00,,0828.7,4.99,0.00,27.8,27.1,00.0,36.9,29.5,06.2,0000.0,0001.08,0000.66,0000.44
2022-03-01 03:33:00,,0828.7,5.00,0.00,27.8,27.1,00.0,36.9,29.5,06.3,0000.0,0001.11,0000.68,0000.44
2022-03-01 03:34:00,,0829.0,5.02,0.00,27.8,27.0,00.0,36.9,29.5,06.4,0000.0,0001.14,0000.69,0000.44
2022-03-01 03:35:00,,0829.1,4.99,0.00,27.8,27.0,00.0,36.9,29.5,06.3,0000.0,0001.13,0000.67,0000.43
2022-03-01 03:36:00,,0829.3,4.99,0.00,27.8,27.0,00.0,36.9,29.5,06.2,0000.0,0001.17,0000.68,0000.43
2022-03-01 03:37:00,,0829.2,4.99,0.00,27.8,27.0,00.0,36.9,29.5,06.1,0000.0,0001.12,0000.66,0000.43
2022-03-01 03:38:00,,0829.1,5.00,0.00,27.8,27.0,00.0,36.9,29.5,06.2,0000.0,0001.05,0000.62,0000.43
2022-03-01 03:39:00,,0829.0,4.99,0.00,27.8,27.0,00.0,36.9,29.5,06.4,0000.0,0001.07,0000.63,0000.43
2022-03-01 03:40:00,,0829.0,5.00,0.00,27.8,27.0,00.0,36.9,29.5,06.5,0000.0,0001.08,0000.62,0000.42
2022-03-01 03:41:00,,0829.1,5.00,0.00,27.8,27.0,00.0,36.9,29.5,06.6,0000.0,0001.17,0000.65,0000.41
2022-03-01 03:42:00,,0829.1,5.00,0.00,27.8,27.1,00.0,36.9,29.5,06.7,0000.0,0001.14,0000.64,0000.42
2022-03-01 03:43:00,,0829.0,5.00,0.00,27.8,27.1,00.0,36.9,29.5,06.8,0000.0,0001.16,0000.64,0000.42
2022-03-01 03:44:00,,0829.1,4.99,0.00,27.8,27.1,00.0,36.8,29.5,06.6,0000.0,0001.10,0000.61,0000.43
2022-03-01 03:45:00,,0829.1,5.00,0.00,27.8,27.0,00.0,36.8,29.4,06.8,0000.0,0001.01,0000.58,0000.42
2022-03-01 03:46:00,,0829.1,5.01,0.00,27.8,27.0,00.0,36.8,29.4,06.8,0000.0,0001.03,0000.59,0000.42
2022-03-01 03:47:00,,0829.1,5.01,0.00,27.8,27.0,00.0,36.8,29.4,06.8,0000.0,0001.00,0000.58,0000.42
2022-03-01 03:48:00,,0829.1,5.01,0.00,27.8,27.0,00.0,36.8,29.4,06.8,0000.0,0001.15,0000.61,0000.41
2022-03-01 03:49:00,,0829.2,5.00,0.00,27.8,27.0,00.0,36.8,29.4,06.8,0000.0,0001.15,0000.62,0000.42
2022-03-01 03:50:00,,0829.1,5.00,0.00,27.8,27.0,00.0,36.8,29.4,06.7,0000.0,0001.12,0000.61,0000.42
2022-03-01 03:51:00,,0829.1,5.00,0.00,27.8,27.0,00.0,36.8,29.5,06.5,0000.0,0001.10,0000.61,0000.43
2022-03-01 03:52:00,,0829.2,5.00,0.00,27.8,27.0,00.0,36.8,29.5,06.7,0000.0,0001.06,0000.60,0000.43
2022-03-01 03:53:00,,0829.2,4.99,0.00,27.8,27.0,00.0,36.8,29.5,06.8,0000.0,0001.01,0000.58,0000.42
2022-03-01 03:54:00,,0829.3,4.99,0.00,27.8,27.0,00.0,36.8,29.4,06.8,0000.0,0001.01,0000.58,0000.42
2022-03-01 03:55:00,,0829.3,5.00,0.00,27.8,26.9,00.0,36.8,29.4,06.9,0000.0,0001.08,0000.60,0000.41
2022-03-01 03:56:00,,0829.2,5.01,0.00,27.8,26.9,00.0,36.8,29.4,07.0,0000.0,0001.05,0000.58,0000.41
2022-03-01 03:57:00,,0829.2,5.00,0.00,27.7,26.9,00.0,36.8,29.4,07.0,0000.0,0001.11,0000.61,0000.41
2022-03-01 03:58:00,,0829.2,5.00,0.00,27.7,26.9,00.0,36.8,29.4,07.1,0000.0,0001.10,0000.61,0000.41
2022-03-01 03:59:00,,0829.2,4.99,0.00,27.7,26.9,00.0,36.8,29.4,07.2,0000.0,0000.99,0000.59,0000.42
